Weather in Płock

Poland     52˚32′07″N   19˚42′51″E
temp.,
°C
wind,
m/s
gust,
m/s
humid.,
%
clouds,
%
prec.,
mm/h
press.,
hPa
HPBL,
m
1 december, tue
tue101:00+1˚s477797 0.1 1022525
04:00sse5981100 0.0 1022503
07:00−1˚sse498383 0.0 1022355
10:00+1˚s587011 0.0 1022533
13:00+2˚sse476136 0.0 1022756
16:00ese487352 0.0 1023207
19:00−1˚se488053 0.0 1025235
22:00−1˚ese377812 0.0 1026217
2 december, wed
wed201:00−2˚ese48766 0.0 1027253
04:00−2˚ese49770 0.0 1026298
07:00−2˚ese49740 0.0 1026352
10:00−1˚se510650 0.0 1025459
13:00+1˚ese58560 0.0 1024551
16:00−2˚ese410750 0.0 1022328
19:00−2˚se511860 0.0 1021398
22:00−2˚se511923 0.0 1021389
3 december, thu
thu301:00−2˚ese4109419 0.0 1019403
04:00−2˚se5109151 0.0 1017431
07:00−3˚se5118949 0.0 1016411
10:00−1˚se597634 0.0 1014429
13:00+1˚se6105967 0.0 1012440
16:00se51163100 0.0 1010443
19:00+1˚ese61265100 0.0 1010402
22:00+1˚ese61168100 0.1 1008394
4 december, fri
fri401:00+1˚ese61069100 0.2 1006343
04:00+1˚ese71267100 0.0 1005372
07:00+2˚ese71465100 0.0 1003442
10:00+2˚se7147095 0.0 1003529
13:00+5˚ese8156469 0.0 1001545
16:00+4˚se71573100 0.0 1000540
19:00+5˚se71575100 0.0 1000499
22:00+4˚sse6158597 0.0 1001440
5 december, sat
sat501:00+4˚se7167999 0.0 1002402
04:00+4˚se716800 0.0 1002379
07:00+4˚se815855 0.0 1002378
10:00+7˚se8177243 0.0 1003523
13:00+10˚se7156255 0.0 1003651
16:00+8˚se7167084 0.0 1003594
19:00+8˚se7176988 0.0 1004507
22:00+7˚se7167363 0.0 1005490